Home > Weather > Gorleben > Past weeks

Flag for Germany Past Weather in Gorleben, Lower Saxony, Germany — Yesterday and Last 2 Weeks

Now
63 °F

Sunny.


Feels Like: 63 °F
Forecast: 62 / 85 °F
Wind: 5 mph from East

Location: Mecklenburg-Vorpommern - Parchim

Current Time: Aug 24, 2016 at 9:01:55 AM

Latest Report: Aug 24, 2016 at 8:20 AM


Visibility: 10 mi

Pressure: 30.30 "Hg

Humidity: 94%

Dew Point: 61 °F

Location of GorlebenLocation

Past Weather in Gorleben — Graph

°F

Gorleben Temperature Yesterday

Maximum temperature yesterday: 77 °F (at 4:50 PM)
Minimum temperature yesterday: 63 °F (at 6:20 AM)
Average temperature yesterday: 69 °F

High & Low Weather Summary for the Past Weeks

 TemperatureHumidityPressure
High77 °F (Aug 23, 4:50 PM)100% (Aug 11, 6:20 AM)30.30 "Hg (Aug 11, 6:20 AM)
Low39 °F (Aug 17, 6:20 AM)39% (Aug 19, 4:50 PM)29.83 "Hg (Aug 18, 6:20 AM)
Average63 °F73%30.07 "Hg
* Reported Aug 9 7:20 AM — Aug 24 7:50 AM, Gorleben, Weather by CustomWeather, © 2016

Note: Actual official high and low records may vary slightly from our data, if they occured in-between our weather recording intervals... More about our weather records

Advertising

Gorleben Weather History for the Previous 24 Hours

Scroll right to see more
 ConditionsComfort  
Time TempWeatherWind HumidityBarometerVisibility
7:50 AM
Wed, Aug 24
61 °FSunny.5 mph100%30.30 "Hg10 mi
7:20 AM59 °FSunny.5 mph100%30.30 "Hg10 mi
6:50 AM59 °FClear.5 mph100%30.30 "Hg10 mi
6:20 AM59 °FClear.5 mph100%30.30 "Hg10 mi
6:50 PM
Tue, Aug 23
75 °FPassing clouds.3 mph61%30.30 "HgN/A
6:20 PM73 °FPartly sunny.6 mph69%30.30 "HgN/A
5:50 PM75 °FPartly sunny.9 mph65%30.30 "HgN/A
5:20 PM75 °FScattered clouds.8 mph65%30.27 "HgN/A
4:50 PM77 °FScattered clouds.6 mph65%30.30 "HgN/A
4:20 PM75 °FScattered clouds.8 mph65%30.30 "HgN/A
3:50 PM73 °FPartly sunny.9 mph69%30.30 "HgN/A
3:20 PM73 °FPartly sunny.7 mph69%30.30 "HgN/A
2:50 PM72 °FPartly sunny.7 mph78%30.30 "HgN/A
2:20 PM72 °FOvercast.8 mph73%30.30 "HgN/A
1:50 PM70 °FOvercast.12 mph78%30.30 "HgN/A
1:20 PM70 °FBroken clouds.9 mph78%30.30 "HgN/A
12:50 PM72 °FPartly sunny.8 mph73%30.30 "HgN/A
12:20 PM70 °FPartly sunny.8 mph78%30.30 "HgN/A
11:50 AM70 °FCloudy.9 mph78%30.30 "HgN/A
11:20 AM68 °FBroken clouds.7 mph83%30.30 "HgN/A
10:50 AM66 °FMostly cloudy.10 mph94%30.30 "Hg6 mi
10:20 AM64 °FCloudy.9 mph94%30.30 "Hg4 mi
9:50 AM64 °FFog.10 mph100%30.30 "Hg3 mi
9:20 AM64 °FFog.9 mph94%30.27 "Hg2 mi
Weather by CustomWeather, © 2016

See weather overviewHow to use our weather pages